STARLINK-34686, 65087

Orbit data source: Space-Track

STARLINK-34686, 65087 is a payload satellite owned by SpaceX/Seattle (US) in LEO that was launched on Mon, 04 Aug 2025 UTC via an FALCON 9 launch vehicle from the Air Force Eastern Test Range (AFETR). Payload-class satellites include a variety of spacecraft equipped with specific instruments for various scientific and technological missions. These include communications satellites like Starlink; space stations such as the ISS; scientific satellites like the Hubble; Earth observation satellites from companies like Planet Labs, Umbra, and HawkEye 360; GPS; miniature CubeSats for education and research; and military/defense satellites.

Loading next visibility...
Identifier
65087, 2025-167K
Orbit
LEO
Country
Flag of USUS
Related business
Manufacturer
SpaceX/Seattle
Mission
Operational Commercial Communications
Bus & Motor
STARLINK V2MO, Unknown motor
Mass
575 kg wet, ~530 kg dry
Launch date (UTC)
2025-08-04 (11 months ago)
Launch vehicle
FALCON 9
Launch site
Air Force Eastern Test Range (AFETR)
Object type
Payload
Rocket body
Debris
Shape & HBR
Box + 2 Pan, 17.7 m
Radar Cross Section
36.964 m², Large (>1 m²)

Expand to show TLE details & history
Last TLE update: 7 hours ago

TLE from 7 hours ago
0 STARLINK-34686
1 65087U 25167K   26174.94674746  .00011027  00000-0  38379-3 0  9998
2 65087  53.1578 253.4377 0000929  72.9465 287.1638 15.30206460 49747
Epoch: 2026-06-23T22:43Z
TLE epoch observation values (Epoch: 2026-06-23T22:43:18.980Z)
Latitude
0.00002°
Longitude
0.49762°
Altitude
475.907 km
Speed
7.629 km/s
True Right ascension
16h 53m 45s
True Declination
0° 00' 00"
Sunlit
Object was in full shadow at epoch
Visualization orbit readout
Latitude
Unknown
Longitude
Unknown
Altitude
Unknown
Speed
Unknown
Apparent Right ascension
Unknown
Apparent Declination
Unknown
Sunlit
N/A
Visualization observer readout
Local Sidereal Time
16:37:53
Azimuth
Unknown
Elevation
Unknown
Doppler factor
Unknown
Orbital elements
Apogee altitude
476.089 km
Perigee altitude
474.816 km
Semi-major axis
6,853.59 km
Eccentricity
0.00009
Inclination
53.1578°
RAAN
253.4377°
Arg. of periapsis
72.9465°
True anomaly
287.15363°
Mean anomaly
287.1638°
Eccentric anomaly
287.15871°
Mean motion
3.8253 °/min
Orbital period
94.11 mins
BSTAR
0.00038379
Loading maneuver chart data...
Computing Atmospheric mass density...
Loading historical data...
Loading historical data...
Loading historical data...
Loading historical data...
Loading historical data...
Loading historical data...
Loading historical data...

Documentation

Showing up to 5 results
|